Regional Weather Roundup
Issued by NWS

Home | Current Version | Previous Version | Text Only | Print | Product List | Glossary On
Versions: 1 2 3 4 5 6 7 8 9 10 11 12 13 14 15 16 17 18 19 20 21 22 23 24 25 26 27 28 29 30 31 32 33 34 35 36 37 38 39 40 41 42 43 44 45 46 47 48 49 50
000
ASUS44 KFWD 301515
RWRTX
NORTH TEXAS HOURLY WEATHER ROUNDUP
NATIONAL WEATHER SERVICE FORT WORTH TX
1000 AM CDT THU JUL 30 2015

NOTE: "FAIR" INDICATES FEW OR NO CLOUDS BELOW 12,000 FEET WITH NO
SIGNIFICANT WEATHER AND/OR OBSTRUCTIONS TO VISIBILITY.

TXZ118-119-301600-
DALLAS/FORT WORTH METROPLEX

CITY           SKY/WX    TMP DP  RH WIND       PRES   REMARKS
DFW AIRPORT    SUNNY     93  69  45 NW8       30.10R HX  98
DALLAS LOVE    SUNNY     92  68  45 W5        30.09R HX  96
FTW MEACHAM    SUNNY     92  69  47 W9        30.10R HX  97
DAL-EXECUTIVE  SUNNY     91  69  48 W7        30.10R HX  96
FTW-ALLIANCE   SUNNY     92  70  48 NW8       30.10R HX  97
FTW-NAS-JRB    SUNNY     91  71  51 N6        30.11R HX  97
FTW-SPINKS     SUNNY     91  70  49 W7        30.12R HX  97
ARLINGTON      MOSUNNY   92  68  45 W6        30.10S HAZE    HX  96
GRAND PRAIRIE  SUNNY     91  70  49 W8        30.11R HX  97
ADDISON        SUNNY     91  64  40 W7        30.11R HX  93
MESQUITE       SUNNY     90  66  45 CALM      30.10R HX  92
LANCASTER      SUNNY     92  66  42 NW9       30.10S HX  95
$$

TXZ091>094-102>105-117-120-121-131>134-301600-
NORTH CENTRAL TEXAS

CITY           SKY/WX    TMP DP  RH WIND       PRES   REMARKS
SHRMAN/DENISON SUNNY     92  69  45 NW5       30.13R HX  97
GAINESVILLE    SUNNY     90  69  49 SW5       30.14R HX  94
BOWIE          SUNNY     89  68  51 SW5       30.14R HX  92
DECATUR        SUNNY     88  67  49 W6        30.13S HX  91
DENTON         SUNNY     90  69  50 W7        30.10S HX  94
MCKINNEY       SUNNY     92  68  45 VRB5      30.10R HX  96
GREENVILLE     SUNNY     93  64  38 NW3       30.11R HX  95
ROCKWALL       SUNNY     90  69  48 NW7       30.09S HX  94
TERRELL        SUNNY     92  69  47 W6        30.10R HX  97
WAXAHACHIE     SUNNY     90  70  51 W9        30.12R HX  95
CLEBURNE         N/A     91  72  52 W8        30.13R HX  98
GRANBURY       SUNNY     91  69  49 CALM      30.12S HX  95
$$

TXZ083>090-098>101-113>116-127>130-139>142-154-155-301600-
WESTERN NORTH TEXAS

CITY           SKY/WX    TMP DP  RH WIND       PRES   REMARKS
WICHITA FALLS  SUNNY     88  67  49 VRB5      30.12R HX  91
WF-KICKAPOO    SUNNY     89  66  46 S5        30.13R HX  91
VERNON         SUNNY     86  62  44 CALM      30.13S
ABILENE        SUNNY     86  67  52 SW6       30.17R
ABILENE-DYESS  SUNNY     89  67  47 S6        30.15R HX  92
BRECKENRIDGE   PTSUNNY   88  68  51 SW6       30.14R HX  91
GRAHAM         SUNNY     88  70  54 S7        30.12R HX  93
MINERAL WELLS  SUNNY     88  70  55 W5        30.12R HX  93
STEPHENVILLE   SUNNY     88  67  50 W7        30.17R HX  91
COMANCHE       SUNNY     87  69  55 SW7       30.16R HX  91
BROWNWOOD      SUNNY     86  68  54 W5        30.16R
COLEMAN        SUNNY     85  69  59 W6        30.17R
BRADY          SUNNY     90  70  51 SW6       30.16R HX  95
$$

TXZ143>147-156>162-174-175-301600-
CENTRAL TEXAS

CITY           SKY/WX    TMP DP  RH WIND       PRES   REMARKS
WACO           SUNNY     91  67  44 NW5       30.09S HX  94
WACO-TSTC      SUNNY     91  66  43 VRB5      30.09R HX  94
WACO-MCGREGOR  SUNNY     90  66  45 NW5       30.11S HX  92
HILLSBORO      SUNNY     91  66  44 NW6       30.11R HX  93
CORSICANA      SUNNY     92  70  48 NW7       30.10R HX  97
MEXIA          SUNNY     89  69  51 N7        30.09S HX  94
HEARNE         SUNNY     86  71  60 W3        30.09S HX  92
CAMERON        SUNNY     89  70  53 NW3       30.09S HX  94
TEMPLE         SUNNY     91  66  43 CALM      30.10S HX  94
KILLEEN        SUNNY     90  65  42 W6        30.11S HX  92
KILLEEN-SKYLRK SUNNY     90  64  43 NW3       30.10S HX  91
FORT HOOD      SUNNY     89  66  47 W7        30.10R HX  91
GATESVILLE     SUNNY     91  66  43 N5        30.13S HX  94
HAMILTON       SUNNY     91  65  42 W6        30.15R HX  92
$$

TXZ095>097-106>112-122>126-135>138-148>153-164>167-301600-
EAST TEXAS

CITY           SKY/WX    TMP DP  RH WIND       PRES   REMARKS
PARIS          SUNNY     91  66  43 N7        30.10S HX  94
SULPHUR SPRNGS SUNNY     91  64  40 CALM      30.12R HX  93
MOUNT PLEASANT SUNNY     91  69  47 CALM      30.10R HX  96
GILMER         SUNNY     89  70  52 CALM      30.08S HX  94
MINEOLA        SUNNY     91  64  40 W6        30.10R HX  93
TYLER          SUNNY     91  69  48 VRB6      30.09R HX  96
LONGVIEW       SUNNY     93  70  46 NW7       30.07S HX  99
MARSHALL       SUNNY     94  69  44 CALM      30.09S HX  99
ATHENS         SUNNY     90  70  51 N6        30.08R HX  95
PALESTINE      SUNNY     88  73  60 W3        30.10S HX  95
JACKSONVILLE   SUNNY     92  68  45 N5        30.11S HX  96
HENDERSON      SUNNY     90  69  50 NW3       30.09S HX  94
CENTER         FAIR      92  71  49 N3G17     30.06S HX  98
NACOGDOCHES    SUNNY     88  72  58 N6        30.07S HX  94
LUFKIN         SUNNY     88  73  61 NW6       30.07S HX  95
$$

SUPPLEMENTAL OBSERVATIONS (CENTRAL)

CITY           SKY/WX    TMP DP  RH WIND       PRES   REMARKS
LAKE TEXOMA      N/A     86  66  51 NW1         N/A
PAT MAYSE LAKE   N/A     91  70  49 NW2         N/A  HX  97
ATHENS           N/A     93  70  46 NW2         N/A  HX  99
LAKE LIMESTONE   N/A     91  68  46 NW6         N/A  HX  95
MCGREGOR         N/A     95  63  34 W2          N/A  HX  96
TEMPLE           N/A     91  66  43 W5          N/A  HX  94
$$

SUPPLEMENTAL OBSERVATIONS (WEST)

CITY           SKY/WX    TMP DP  RH WIND       PRES   REMARKS
MILLERS CREEK    N/A     91  66  43 SW9         N/A  HX  94
POSSUM KINGDOM   N/A     91  70  49 SW7         N/A  HX  97
GRANBURY         N/A     91  68  46 NW5         N/A  HX  95
COMANCHE         N/A     88  70  55 SW8         N/A  HX  92
HAMBY            N/A     88  66  48 SW7         N/A  HX  90
IVIE RESERVOIR   N/A     90  68  48 NW1         N/A  HX  93
COLORADO BEND    N/A     90  64  43 NW3         N/A  HX  91
$$

SUPPLEMENTAL OBSERVATIONS (EAST)

CITY           SKY/WX    TMP DP  RH WIND       PRES   REMARKS
CLARKSVILLE      N/A     91  72  52 NE5         N/A  HX  98
CADDO LAKE       N/A     95  73  49 E9          N/A  HX 105
GILMER           N/A     93  70  46 NW2         N/A  HX  99
HENDERSON        N/A     93  68  43 NW6         N/A  HX  97
LUFKIN           N/A     90  72  55 MISG        N/A  HX  96
N SABINE NF      N/A     91  75  59 MISG        N/A  HX 102
S SABINE NF      N/A     91  70  49 CALM        N/A  HX  97
$$

SUPPLEMENTAL OBSERVATIONS ARE A COLLECTION OF AUTOMATED INSTRUMENTS
THAT ARE MAINTAINED BY A VARIETY OF FEDERAL AND STATE AGENCIES.
CERTAIN ELEMENTS...SUCH AS HUMIDITY VALUES AND SUSTAINED WIND
SPEEDS...MAY BE APPROXIMATED.




USA.gov is the U.S. government's official web portal to all federal, state and local government web resources and services.